{"data":{"norad_id":63933,"epoch":"2026-09-20T22:43:56.364960Z","epoch_age_seconds":108426,"freshness":"FRESH","line1":"1 63933U 25098H   26263.94718015  .00003819  00000+0  13723-3 0  9991","line2":"2 63933  69.9997 139.6031 0003172 272.8542  87.2270 15.29581932 75880","mean_motion":15.29581932,"eccentricity":0.0003172,"inclination_deg":69.9997,"raan_deg":139.6031,"arg_perigee_deg":272.8542,"mean_anomaly_deg":87.227,"bstar":0.00013723,"rev_number":7588,"period_min":94.143371458182,"perigee_km":474.8866616005,"apogee_km":479.23559929445,"semimajor_km":6855.1981304475,"source":"CELESTRAK","updated_at":"2026-09-21T09:00:35.150200Z"}}